MST,Max TemperatureF,Mean TemperatureF,Min TemperatureF,Max Dew PointF,MeanDew PointF,Min DewpointF,Max Humidity, Mean Humidity, Min Humidity, Max Sea Level PressureIn, Mean Sea Level PressureIn, Min Sea Level PressureIn, Max VisibilityMiles, Mean VisibilityMiles, Min VisibilityMiles, Max Wind SpeedMPH, Mean Wind SpeedMPH, Max Gust SpeedMPH,PrecipitationIn, CloudCover, Events, WindDirDegrees
2013-11-1,59,48,37,41,38,36,100,74,47,30.33,30.24,30.11,10,10,7,13,3,15,0.00,4,,125
2013-11-2,57,48,38,45,37,29,93,67,40,30.09,29.91,29.80,10,10,7,25,10,32,0.02,3,Rain,145
2013-11-3,45,38,30,31,28,25,89,67,45,30.08,30.03,29.93,10,9,1,18,6,23,0.01,5,Snow,326
2013-11-4,44,38,32,30,25,19,85,62,39,30.21,30.11,30.05,10,10,10,18,5,24,0.00,5,,245
2013-11-5,42,34,25,36,28,19,92,67,41,30.33,30.29,30.23,10,10,7,16,8,18,0.17,6,Rain,126
2013-11-6,46,41,36,41,38,36,100,91,82,30.42,30.36,30.30,10,4,0,10,2,14,0.01,8,Fog-Rain,264
2013-11-7,60,50,40,45,41,39,100,76,51,30.30,30.09,29.87,10,8,2,22,9,30,0.03,6,Rain,119
2013-11-8,50,43,36,39,34,30,100,73,46,30.15,30.12,30.03,10,10,9,13,4,16,0.00,3,,295
2013-11-9,56,45,34,35,32,30,89,64,38,30.22,30.18,30.15,10,10,10,13,5,15,0.00,0,,138
2013-11-10,59,47,35,39,34,30,89,65,40,30.24,30.19,30.14,10,9,7,13,3,16,0.00,0,,137
2013-11-11,55,45,34,40,36,32,92,72,51,30.34,30.29,30.21,10,8,5,13,2,16,0.00,0,,92
2013-11-12,54,45,36,38,34,30,92,71,50,30.42,30.37,30.31,10,9,4,15,4,18,0.00,1,,253
2013-11-13,57,47,36,43,36,30,92,68,43,30.38,30.33,30.30,10,8,5,21,5,24,T,2,Rain,297
2013-11-14,51,43,34,37,33,30,85,69,52,30.28,30.04,29.88,10,10,5,14,7,17,0.00,0,,158
2013-11-15,46,37,28,33,28,26,92,71,49,29.93,29.82,29.63,10,10,9,15,5,18,T,2,Rain,303
2013-11-16,42,37,32,36,32,29,100,80,60,29.83,29.60,29.52,10,7,1,20,7,25,0.35,7,Rain-Snow,3
2013-11-17,50,42,34,32,29,26,82,62,42,30.11,30.03,29.86,10,10,10,15,7,17,0.00,3,,123
2013-11-18,43,38,32,34,31,27,85,72,59,30.12,30.03,29.91,10,10,8,14,5,16,0.00,1,,169
2013-11-19,51,45,38,44,40,34,100,86,71,29.95,29.90,29.83,10,9,5,14,7,18,0.39,8,Rain,117
2013-11-20,48,39,30,45,33,16,100,72,43,30.11,29.91,29.78,10,8,5,26,12,31,0.36,5,Rain,273
2013-11-21,40,32,24,21,16,12,75,56,37,30.61,30.41,30.14,10,10,10,12,4,16,0.00,0,,231
2013-11-22,39,31,22,23,20,17,84,68,52,30.68,30.62,30.56,10,10,9,9,1,10,0.00,0,,188
2013-11-23,38,31,23,25,22,19,88,71,54,30.56,30.47,30.35,10,9,7,10,3,13,0.00,0,,191
2013-11-24,40,32,23,27,24,20,88,74,59,30.38,30.34,30.30,10,7,5,9,2,10,0.00,0,,192
2013-11-25,46,35,24,29,26,21,88,69,49,30.49,30.44,30.37,9,7,4,12,4,14,0.00,0,,148
2013-11-26,46,37,27,31,28,25,92,73,53,30.45,30.36,30.26,10,8,5,13,2,15,0.00,0,,54
2013-11-27,44,36,27,30,28,25,92,75,57,30.25,30.18,30.12,10,8,5,7,2,8,0.00,0,,319
2013-11-28,47,38,28,33,30,27,92,75,58,30.22,30.17,30.12,10,7,4,8,2,9,0.00,0,,289
2013-11-29,49,39,28,33,30,26,92,73,54,30.35,30.30,30.23,10,7,4,9,2,12,0.00,0,,145
2013-11-30,44,38,32,37,34,31,100,83,65,30.38,30.35,30.32,5,4,3,6,1,8,T,8,Rain,278